Clemson, SC

2:28 AM EDT on May 25, 2017 (GMT -0400)
Oconee County Regional

Weather History for KCEU - December, 2012

Change the Weather History Date:

Saturday, December 29, 2012

  Actual Average Record
Temperature  
Mean Temperature 46 °F -  
Max Temperature 54 °F 52 °F 72 °F (1984)
Min Temperature 37 °F 31 °F 14 °F (1977)
Degree Days  
Heating Degree Days 18    
Moisture  
Dew Point 33 °F    
Average Humidity 73    
Maximum Humidity 93    
Minimum Humidity 41    
Precipitation  
Precipitation 0.22 in - - ()
Sea Level Pressure  
Sea Level Pressure 29.87 in    
Wind  
Wind Speed 6 mph (WNW)    
Max Wind Speed 18 mph    
Max Gust Speed 32 mph    
Visibility 7 miles    
Events Rain    
Averages and records for this station are not official NWS values.
T = Trace of Precipitation, MM = Missing Value Source: NWS Daily Summary

Daily Weather History Graph

Daily Weather History Graph

Search for Another Location

Airport or City:

Trip Planner

Search our weather history database for the weather conditions in past years. The results will help you decide how hot, cold, wet, or windy it might be!

Date:

Astronomy

Dec. 29, 2012 Rise Set
Actual Time 7:38 AM EST 5:29 PM EST
Civil Twilight 7:10 AM EST 5:57 PM EST
Nautical Twilight 6:38 AM EST 6:29 PM EST
Astronomical Twilight 6:07 AM EST 6:59 PM EST
Moon 6:57 PM EST (12/29) 8:14 AM EST (12/29)
Length of Visible Light 10h 47m
Length of Day
9h 51m
Full, 98% of the Moon is Illuminated
Dec 29
Full
Jan 4
Last Quarter
Jan 11
New
Jan 18
First Quarter
Jan 26
Full

Hourly Weather History & Observations

Time (EST) Temp. Windchill Dew Point Humidity Pressure Visibility Wind Dir Wind Speed Gust Speed Precip Events Conditions
12:54 AM 39.9 °F - 35.1 °F 83% 29.96 in 6.0 mi Calm Calm - 0.06 in Rain Light Rain
1:54 AM 39.0 °F 35.7 °F 35.1 °F 86% 29.92 in 6.0 mi ENE 4.6 mph - 0.07 in Rain Light Rain
2:54 AM 39.0 °F 34.0 °F 35.1 °F 86% 29.83 in 5.0 mi East 6.9 mph - 0.07 in Rain Light Rain
3:07 AM 39.2 °F 35.0 °F 35.6 °F 87% 29.84 in 7.0 mi Variable 5.8 mph - 0.01 in Rain Light Rain
3:16 AM 39.2 °F 34.2 °F 35.6 °F 87% 29.85 in 7.0 mi NNE 6.9 mph - 0.01 in   Overcast
3:26 AM 39.2 °F 37.0 °F 35.6 °F 87% 29.86 in 6.0 mi NNE 3.5 mph - 0.01 in   Overcast
3:38 AM 39.2 °F 34.2 °F 35.6 °F 87% 29.82 in 7.0 mi NE 6.9 mph - 0.02 in Rain Light Rain
3:54 AM 39.9 °F 35.8 °F 35.1 °F 83% 29.82 in 7.0 mi NE 5.8 mph - 0.02 in   Overcast
4:49 AM 39.2 °F 37.0 °F 35.6 °F 87% 29.80 in 5.0 mi North 3.5 mph - N/A   Overcast
4:54 AM 39.0 °F 35.7 °F 35.1 °F 86% 29.81 in 4.0 mi NNE 4.6 mph - N/A   Overcast
5:25 AM 39.2 °F 37.0 °F 35.6 °F 87% 29.80 in 2.5 mi North 3.5 mph - N/A   Overcast
5:54 AM 39.0 °F 36.8 °F 36.0 °F 89% 29.81 in 2.5 mi NNW 3.5 mph - 0.00 in Rain Light Rain
6:13 AM 39.2 °F 37.0 °F 35.6 °F 87% 29.80 in 3.0 mi NNW 3.5 mph - 0.01 in Rain Light Rain
6:30 AM 39.2 °F - 35.6 °F 87% 29.81 in 3.0 mi Calm Calm - 0.01 in   Overcast
7:54 AM 39.9 °F - 37.0 °F 89% 29.83 in 2.0 mi Calm Calm - N/A   Overcast
7:57 AM 39.2 °F - 37.4 °F 93% 29.82 in 1.8 mi Calm Calm - N/A   Overcast
8:28 AM 39.2 °F 37.0 °F 37.4 °F 93% 29.82 in 2.0 mi Variable 3.5 mph - N/A   Overcast
8:54 AM 39.9 °F 36.7 °F 37.0 °F 89% 29.83 in 2.5 mi SW 4.6 mph - N/A   Overcast
9:20 AM 41.0 °F 37.1 °F 37.4 °F 87% 29.82 in 4.0 mi WSW 5.8 mph - N/A   Overcast
9:44 AM 42.8 °F 37.5 °F 37.4 °F 81% 29.83 in 6.0 mi WSW 9.2 mph - N/A   Haze
9:54 AM 44.1 °F 39.0 °F 39.0 °F 82% 29.83 in 7.0 mi WSW 9.2 mph 16.1 mph N/A   Scattered Clouds
10:54 AM 48.0 °F - 39.0 °F 71% 29.83 in 10.0 mi WSW 16.1 mph 21.9 mph N/A   Clear
11:54 AM 51.1 °F - 37.9 °F 61% 29.82 in 10.0 mi WSW 16.1 mph 21.9 mph N/A   Clear
12:54 PM 54.0 °F - 34.0 °F 47% 29.80 in 10.0 mi West 13.8 mph 25.3 mph N/A   Clear
1:54 PM 53.1 °F - 33.1 °F 47% 29.79 in 10.0 mi WSW 16.1 mph 25.3 mph N/A   Clear
2:54 PM 52.0 °F - 32.0 °F 47% 29.82 in 10.0 mi West 17.3 mph 27.6 mph N/A   Overcast
3:54 PM 46.9 °F - 30.0 °F 52% 29.86 in 10.0 mi West 18.4 mph 26.5 mph N/A   Scattered Clouds
4:54 PM 45.0 °F 38.5 °F 30.0 °F 56% 29.91 in 10.0 mi West 13.8 mph - N/A   Clear
5:54 PM 42.1 °F 33.9 °F 28.0 °F 58% 29.94 in 10.0 mi West 17.3 mph 21.9 mph N/A   Clear
6:54 PM 42.1 °F 35.2 °F 27.0 °F 55% 29.98 in 10.0 mi West 12.7 mph - N/A   Overcast
7:54 PM 41.0 °F 34.7 °F 27.0 °F 57% 30.01 in 10.0 mi West 10.4 mph - N/A   Overcast
8:54 PM 39.9 °F 33.4 °F 21.9 °F 49% 30.04 in 10.0 mi NW 10.4 mph - N/A   Partly Cloudy
9:54 PM 39.0 °F 30.6 °F 18.0 °F 43% 30.06 in 10.0 mi WNW 15.0 mph 32.2 mph N/A   Clear
10:54 PM 39.0 °F 30.6 °F 19.0 °F 45% 30.08 in 10.0 mi WNW 15.0 mph 31.1 mph N/A   Clear
11:54 PM 37.9 °F 28.2 °F 16.0 °F 41% 30.10 in 10.0 mi WNW 18.4 mph 26.5 mph N/A   Clear